SCP
5 5 4 4 3 3 2 3 2 2 1 1 1 1 1 1 1 0 0 1 1 1 1 1 1 1 1 1 1 1 1 1 1 1 1 0 0 0 0 0 0 0 0
6 5 4 4 3 3 3 4 3 2 1 1 1 1 0 0 0 0 0 0 0 1 1 1 1 1 1 1 1 1 1 1 1 1 1 0 0 0 0 0 0 0 0
6 5 4 4 4 3 3 4 4 2 1 1 1 1 1 0 0 0 0 0 0 0 1 1 1 1 1 1 1 1 1 1 1 1 1 0 0 0 0 0 0 0 0
5 4 4 4 3 3 3 4 4 3 2 1 1 1 1 1 1 0 0 0 0 0 1 1 1 1 1 1 0 0 0 0 0 0 0 0 0 0 0 0 0 0 0
4 4 3 3 3 3 3 3 3 3 2 1 1 1 1 1 0 0 0 0 0 0 1 1 1 1 1 1 0 0 0 0 0 0 0 0 0 0 0 0 0 0 0
4 4 4 4 3 3 2 3 3 2 2 1 1 1 1 1 1 0 0 0 0 1 1 1 1 1 1 0 0 0 0 0 0 0 0 0 0 0 0 0 0 0 0
3 3 4 4 3 3 2 2 2 2 2 1 1 1 1 1 0 0 0 1 1 1 1 0 0 0 0 0 0 0 0 0 0 0 0 0 0 0 0 0 0 0 0
2 3 4 4 4 3 2 2 2 2 2 1 1 1 1 0 0 0 1 1 1 1 1 1 1 1 1 0 0 0 0 0 0 0 0 0 0 0 0 0 0 0 0
2 3 4 4 3 3 2 2 2 2 1 1 1 1 1 1 1 1 1 1 1 1 1 1 1 1 1 1 1 1 0 0 0 0 0 0 0 0 0 0 0 0 0
2 2 3 3 3 3 2 2 2 1 1 1 1 1 1 1 1 1 1 1 0 1 1 1 1 1 1 1 1 1 1 0 0 0 0 0 0 0 0 0 0 0 0
2 2 3 3 3 3 2 2 1 1 1 1 1 1 1 1 1 1 0 0 0 1 1 1 1 1 1 1 1 1 1 1 1 0 0 0 0 0 0 0 0 0 0
2 2 3 3 3 3 2 2 1 1 1 1 1 1 1 1 1 1 0 0 0 1 1 1 1 1 1 1 1 1 1 1 1 1 1 0 0 0 0 0 0 0 0
2 3 3 4 4 4 3 2 2 1 1 1 1 1 1 1 1 1 0 0 0 1 1 1 1 1 1 1 1 1 1 1 1 1 0 0 0 0 0 0 0 0 0
2 3 4 5 5 5 4 3 2 2 1 1 1 1 1 1 1 1 1 1 1 1 1 1 1 1 1 1 1 1 0 0 0 0 0 0 0 0 0 0 0 0 0
3 4 6 7 7 6 5 4 3 2 2 2 1 1 1 1 1 1 1 1 1 1 1 1 1 1 0 0 0 0 0 0 0 0 0 0 0 0 0 0 0 0 0
4 6 8 8 7 6 6 5 4 3 3 3 2 1 1 1 1 1 1 1 1 1 1 0 0 0 0 0 0 0 0 0 0 0 0 0 0 0 0 0 0 0 0
5 7 7 6 5 6 7 6 5 4 4 4 3 2 1 1 1 1 1 1 1 0 0 0 0 0 0 0 0 0 0 0 0 0 0 0 0 0 0 0 0 0 0
5 5 5 4 4 6 8 8 5 4 4 3 2 2 1 1 1 1 1 0 0 0 0 0 0 0 0 0 0 0 0 0 0 0 0 0 0 0 0 0 0 0 0
4 4 4 3 4 7 9 9 6 4 3 2 2 1 1 1 1 1 1 0 0 0 0 0 0 0 0 0 0 0 0 0 0 0 0 0 0 0 0 0 0 0 0
4 4 3 3 4 7 10 9 6 3 2 2 1 1 1 1 1 1 1 0 0 0 0 0 0 0 0 0 0 0 0 0 0 0 0 0 0 0 0 0 0 0 0
4 4 3 4 5 7 9 8 6 4 3 2 2 1 1 1 1 1 1 0 0 0 0 0 0 0 0 0 0 0 0 0 0 0 0 0 0 0 0 0 0 0 0
4 4 4 4 6 7 8 7 5 4 4 3 2 2 1 1 1 1 1 0 0 0 0 0 0 0 0 0 0 0 0 0 0 0 0 0 0 0 0 0 0 0 0
4 4 4 5 6 6 6 6 5 4 4 3 3 2 2 1 1 1 1 0 0 0 0 0 0 0 0 0 0 0 0 0 0 0 0 0 0 0 0 0 0 0 0
3 3 4 5 5 5 5 4 4 4 4 4 3 3 2 2 1 1 1 0 0 0 0 0 0 0 0 0 0 0 0 0 0 0 0 0 0 0 0 0 0 0 0
3 3 3 4 5 4 4 3 3 4 4 4 3 3 2 2 2 1 1 0 0 0 0 0 0 0 0 0 0 0 0 0 0 0 0 0 0 0 0 0 0 0 0
3 3 3 4 4 3 3 3 3 4 4 4 4 3 3 2 1 1 0 0 0 0 0 0 0 0 0 0 0 0 0 0 0 0 0 0 0 0 0 0 0 0 0
Wind_Speed
5 5 6 7 7 7 7 8 7 6 5 3 3 2 2 2 2 2 3 4 4 4 4 3 3 3 3 3 3 2 2 1 1 1 1 2 1 1 2 2 2 3 4
5 6 6 7 8 8 8 8 8 8 6 4 3 2 2 2 2 2 2 3 4 4 4 4 3 3 3 3 3 3 2 1 2 2 1 1 2 1 1 1 2 3 2
8 7 7 8 8 9 9 9 8 8 7 5 3 2 2 1 1 1 2 3 3 4 3 4 4 3 3 3 4 4 4 3 2 2 3 2 3 1 1 1 1 1 1
7 7 8 8 8 8 7 7 7 7 7 6 5 5 4 4 4 2 2 2 3 3 4 4 4 4 3 4 4 4 3 3 3 2 2 2 3 2 1 1 1 1 1
8 8 9 8 7 7 7 6 6 6 6 6 7 6 4 3 2 1 2 2 2 3 3 4 4 4 4 4 4 3 4 3 3 3 2 2 1 2 2 2 1 1 1
7 7 6 6 5 6 6 6 7 6 6 7 6 6 6 5 3 3 3 2 1 2 2 3 3 4 3 4 4 4 4 4 4 3 3 3 3 3 3 3 2 1 1
7 7 7 7 7 8 8 7 7 6 6 6 6 6 6 5 5 4 3 3 2 2 3 3 3 3 3 3 3 3 4 4 4 4 4 4 4 3 3 3 2 2 1
6 7 8 8 8 8 8 8 8 7 6 6 6 5 5 4 3 3 3 3 3 3 2 2 2 2 2 3 2 2 3 3 4 4 4 3 3 3 4 4 3 2 1
7 7 7 7 7 8 8 9 8 7 6 6 5 5 4 4 3 3 3 2 2 2 2 2 2 2 2 2 2 2 2 2 3 3 3 3 2 3 3 3 4 4 3
6 6 6 7 7 7 6 7 7 7 6 6 5 4 4 4 3 3 3 3 2 2 2 1 1 1 1 1 1 1 2 2 2 2 2 2 2 2 3 3 3 3 4
8 7 6 6 6 6 6 6 6 6 5 5 5 4 4 4 3 3 3 2 2 2 2 2 2 1 1 1 1 2 2 2 2 2 2 3 2 2 2 2 3 3 3
6 6 6 6 6 6 6 7 6 6 5 5 5 4 4 3 3 3 2 2 2 2 2 1 1 1 1 1 1 1 1 1 1 1 1 2 2 2 2 2 2 2 3
6 5 6 6 6 6 6 6 6 6 5 5 5 4 4 4 3 3 2 2 3 2 2 2 2 1 1 1 0 1 1 1 1 1 1 1 1 1 1 1 2 2 2
6 6 5 5 6 6 6 6 6 6 6 6 6 5 4 4 4 3 3 3 3 3 3 2 2 2 1 1 1 1 1 1 1 1 0 0 0 1 1 1 2 3 3
6 7 7 6 6 6 5 6 6 6 6 6 5 5 4 4 4 4 3 3 3 3 3 3 2 2 1 1 1 1 1 2 2 2 2 2 2 1 1 1 2 3 3
8 8 8 8 8 8 8 7 7 7 6 6 5 5 5 5 4 4 4 4 3 3 3 3 3 2 2 2 3 2 2 2 2 2 2 3 3 3 3 3 3 3 4
8 8 9 9 9 9 9 8 7 6 7 6 5 5 5 5 4 5 4 4 3 3 3 3 3 3 2 3 4 4 3 3 2 2 2 2 3 4 3 5 6 5 4
6 7 7 7 6 7 7 7 7 7 6 6 5 5 5 5 4 5 4 3 3 3 3 3 3 3 3 4 4 4 4 3 3 3 2 2 3 3 3 4 5 5 4
4 5 6 6 6 7 8 9 8 7 7 6 6 6 6 5 5 5 4 3 3 3 3 2 3 2 2 3 4 4 3 3 3 3 3 2 2 4 4 5 5 5 4
1 3 5 7 8 8 9 10 8 7 7 7 6 6 6 6 6 5 4 3 3 3 3 3 2 2 1 2 3 4 3 3 2 2 3 4 3 4 4 3 4 4 3
2 4 6 6 6 8 9 9 8 7 6 6 6 5 5 5 5 4 3 4 4 4 3 3 2 2 1 2 3 3 2 2 2 2 2 2 4 5 5 4 3 4 4
4 5 5 5 5 7 9 8 7 5 6 6 6 6 5 4 4 5 4 4 4 4 3 3 2 1 1 2 2 3 3 3 3 2 1 2 4 5 5 4 5 6 5
4 4 5 5 4 5 6 7 6 6 7 6 5 5 5 4 4 5 4 3 3 3 3 3 2 1 1 1 2 3 4 4 3 2 3 4 5 5 5 6 6 5 3
3 4 5 5 4 3 4 5 6 7 7 7 6 5 5 4 4 4 4 3 3 3 3 3 2 2 1 1 1 1 2 4 3 3 4 5 6 5 4 4 3 2 2
2 3 4 4 4 3 3 4 6 6 7 6 6 5 5 5 4 3 2 3 2 2 3 3 3 3 2 2 3 3 2 2 3 4 3 2 2 2 2 2 2 2 2
2 3 4 4 4 3 3 3 4 5 6 5 5 4 3 4 4 4 3 5 3 3 3 2 2 2 2 3 5 4 4 5 7 4 3 2 2 2 2 2 1 1 1
Wind_Direction
201 188 180 172 167 169 170 173 171 169 162 159 158 164 186 191 192 205 203 193 189 186 186 198 189 181 189 198 188 168 170 182 148 116 358 333 308 254 242 229 221 222 224
185 187 177 174 174 179 180 179 179 175 181 175 159 161 162 185 193 203 197 198 192 192 197 194 195 193 193 191 188 175 167 181 167 154 130 330 335 334 271 223 221 230 229
194 188 182 183 181 186 185 187 184 180 183 168 139 119 102 92 161 208 211 208 196 199 201 195 194 197 194 203 204 188 180 191 197 182 161 173 229 291 334 288 235 228 225
190 186 186 189 189 189 180 182 179 178 178 170 170 167 175 188 202 197 205 210 204 206 200 195 196 196 197 206 212 198 193 183 198 199 204 195 173 177 274 331 316 262 245
187 189 190 191 184 174 173 175 171 176 177 177 181 180 184 189 183 179 202 217 219 214 205 197 196 200 206 211 212 198 199 197 196 192 183 191 200 194 191 249 292 345 299
182 186 183 169 166 164 166 167 170 178 177 179 184 188 188 182 177 190 203 214 216 232 226 210 201 205 208 211 212 207 204 207 207 205 195 184 185 193 191 214 232 248 284
176 177 176 175 174 172 173 171 173 181 179 181 189 191 192 186 191 197 202 202 210 230 234 223 211 210 211 210 209 204 211 209 211 213 217 212 212 185 177 188 205 219 236
177 182 184 182 181 176 172 173 178 182 179 185 192 188 187 188 196 199 197 203 214 224 224 210 205 203 203 213 209 210 218 211 215 221 217 217 219 201 190 184 178 197 216
182 185 181 179 179 178 180 179 177 177 181 186 183 181 184 189 196 197 198 206 209 204 201 197 196 202 198 197 197 216 227 216 219 222 218 221 229 215 211 199 189 186 208
182 183 181 181 181 182 177 172 174 178 178 178 182 183 186 188 191 182 190 196 196 184 178 191 193 199 190 183 194 219 227 211 224 219 212 226 231 215 209 209 207 199 193
189 189 185 179 174 164 162 167 170 169 170 175 176 178 179 174 171 176 188 188 180 171 175 185 178 175 190 185 185 220 219 215 225 215 208 230 223 213 213 209 201 196 183
187 182 176 166 166 166 167 171 172 174 175 171 167 169 164 154 156 164 169 161 156 147 147 141 138 137 131 150 181 229 227 202 217 222 209 233 214 210 215 205 200 191 182
177 173 168 170 172 171 171 173 174 175 168 162 160 157 156 155 158 161 152 148 141 128 122 121 122 119 112 114 171 177 179 184 208 205 204 233 204 215 207 193 184 171 158
178 173 172 175 173 171 171 172 173 169 164 160 160 161 163 160 157 151 146 147 143 138 129 122 116 111 106 94 73 95 102 85 52 44 78 76 149 204 198 180 173 156 148
185 180 179 179 172 169 172 172 171 169 163 159 161 166 158 147 140 138 135 131 133 136 131 118 101 87 91 72 65 79 94 82 61 44 40 45 65 79 110 135 158 155 153
198 186 181 181 178 176 179 176 175 170 161 160 160 154 146 141 140 137 128 122 117 118 119 112 106 88 69 62 83 91 91 87 81 60 38 39 47 60 76 88 104 134 153
199 191 190 189 185 182 176 174 175 163 158 156 152 152 146 146 146 139 129 126 124 118 112 111 114 103 69 72 82 86 90 86 72 63 49 50 49 53 66 71 74 75 84
198 193 189 188 181 168 162 156 151 150 151 151 154 152 149 148 142 135 134 128 119 116 114 113 112 101 79 84 92 91 90 81 63 53 49 61 49 52 79 85 75 63 51
198 187 176 169 159 159 155 145 145 147 155 160 165 161 158 155 150 149 145 137 130 123 118 115 115 107 79 85 102 99 97 86 62 52 50 64 65 54 83 100 95 79 57
149 150 143 140 149 153 148 148 153 161 171 169 169 161 161 161 160 159 149 137 136 138 133 121 117 116 98 92 109 113 114 104 81 57 47 55 68 72 84 104 110 102 81
85 119 125 136 149 148 147 151 156 173 173 156 151 151 157 158 155 150 145 140 137 134 133 127 111 100 96 93 108 119 127 134 118 92 62 52 74 84 82 83 94 112 112
69 100 113 121 134 146 150 155 167 166 146 147 148 151 151 152 149 147 144 143 147 146 146 139 121 87 74 82 104 122 126 130 127 123 107 90 91 90 87 87 97 102 101
79 97 112 114 117 137 148 157 158 142 140 137 143 147 143 143 144 147 148 146 150 154 157 154 153 141 96 79 94 127 129 124 118 117 119 114 105 94 87 92 101 103 105
76 93 107 116 119 129 135 138 136 140 141 144 150 152 149 149 142 142 149 155 162 167 166 170 175 168 144 130 114 126 128 123 115 107 99 97 93 86 84 87 91 89 102
78 94 112 123 125 122 120 130 142 146 147 148 151 156 153 149 142 133 126 151 149 182 178 184 176 171 190 199 168 156 158 156 142 123 104 96 96 95 92 88 86 92 102
83 96 101 111 114 113 113 119 136 145 150 151 155 157 155 152 152 147 111 65 86 101 111 125 154 171 166 152 156 158 152 143 139 126 130 139 141 146 147 141 127 122 127